Location: Newark
(37.8333°N, 119.5000°W)
Time: 07:43:33
(UTC+00:00)

Tiros 1 despin weight - Pass Details

Date: 23 August 2019
Orbit: 594 x 642 km, 48.2° (Epoch: 21 September)

Event Time Altitude Azimuth Distance (km) Brightness Sun altitude
Rises 10:21:14 0° 298° (WNW) 2,859 - -30.7°
Reaches altitude 10° 10:23:57 10° 314° (NW) 1,964 - -30.4°
Exits shadow 10:26:21 20° 344° (NNW) 1,419 ? -30.1°
Maximum altitude 10:27:30 22° 6° (N) 1,343 ? -29.9°
Drops below altitude 10° 10:31:06 10° 58° (ENE) 1,987 ? -29.4°
Sets 10:33:52 0° 73° (ENE) 2,903 ? -29.1°
